Terminal Aerodrome Forecast
Issued by NWS Melbourne, FL

Current Version | Previous Version | Text Only | Print | Product List | Glossary On
Versions: 1 2 3 4 5 6 7 8 9 10 11 12 13 14 15 16 17 18 19 20 21 22 23
071
FTUS42 KMLB 121132
TAFMCO
TAF
KMCO 121132Z 1212/1312 20003KT P6SM SKC
     FM121400 23008KT P6SM SKC
     FM121700 24014G21KT P6SM FEW250
     FM122300 24007KT P6SM SKC=

USA.gov is the U.S. government's official web portal to all federal, state and local government web resources and services.